TimeEDT,TemperatureF,Dew PointF,Humidity,Sea Level PressureIn,VisibilityMPH,Wind Direction,Wind SpeedMPH,Gust SpeedMPH,PrecipitationIn,Events,Conditions,WindDirDegrees,DateUTC
12:54 AM,48.0,36.0,63,30.03,-9999.0,NNW,9.2,-,N/A,,Unknown,340,2013-05-26 04:54:00
1:54 AM,46.9,36.0,66,30.01,-9999.0,Variable,4.6,-,N/A,,Unknown,0,2013-05-26 05:54:00
2:54 AM,46.0,36.0,68,30.00,-9999.0,Variable,5.8,-,N/A,,Unknown,0,2013-05-26 06:54:00
3:54 AM,46.9,36.0,66,30.00,-9999.0,Variable,4.6,-,N/A,,Unknown,0,2013-05-26 07:54:00
4:54 AM,46.9,35.1,63,30.02,-9999.0,Variable,6.9,-,N/A,,Unknown,0,2013-05-26 08:54:00
5:54 AM,46.0,36.0,68,30.04,-9999.0,Calm,Calm,-,N/A,,Unknown,0,2013-05-26 09:54:00
6:54 AM,46.0,37.0,71,30.05,-9999.0,Calm,Calm,-,N/A,,Unknown,0,2013-05-26 10:54:00
7:54 AM,50.0,37.0,61,30.05,-9999.0,West,6.9,-,N/A,,Unknown,280,2013-05-26 11:54:00
8:54 AM,53.1,37.0,55,30.05,-9999.0,West,8.1,-,N/A,,Unknown,280,2013-05-26 12:54:00
9:54 AM,55.9,33.1,42,30.05,-9999.0,NNW,10.4,26.5,N/A,,Unknown,340,2013-05-26 13:54:00
10:54 AM,57.9,34.0,41,30.05,-9999.0,North,13.8,21.9,N/A,,Unknown,350,2013-05-26 14:54:00
11:54 AM,60.1,33.1,36,30.05,-9999.0,Variable,6.9,29.9,N/A,,Unknown,0,2013-05-26 15:54:00
12:54 PM,62.1,33.1,34,30.05,-9999.0,Variable,5.8,19.6,N/A,,Unknown,0,2013-05-26 16:54:00
1:54 PM,64.0,32.0,30,30.04,-9999.0,North,11.5,21.9,N/A,,Unknown,350,2013-05-26 17:54:00
2:54 PM,64.0,32.0,30,30.04,-9999.0,North,10.4,20.7,N/A,,Unknown,360,2013-05-26 18:54:00
3:54 PM,64.0,30.9,29,30.05,-9999.0,NNW,11.5,21.9,N/A,,Unknown,330,2013-05-26 19:54:00
4:54 PM,64.0,30.0,28,30.06,-9999.0,Variable,6.9,25.3,N/A,,Unknown,0,2013-05-26 20:54:00
5:54 PM,64.0,30.0,28,30.08,-9999.0,NNW,10.4,18.4,N/A,,Unknown,340,2013-05-26 21:54:00
6:54 PM,63.0,28.9,28,30.11,-9999.0,NNW,9.2,19.6,N/A,,Unknown,340,2013-05-26 22:54:00
7:54 PM,59.0,30.0,33,30.13,-9999.0,Variable,3.5,-,N/A,,Unknown,0,2013-05-26 23:54:00
8:54 PM,53.1,37.9,57,30.16,-9999.0,Calm,Calm,-,N/A,,Unknown,0,2013-05-27 00:54:00
9:54 PM,48.0,41.0,77,30.19,-9999.0,Calm,Calm,-,N/A,,Unknown,0,2013-05-27 01:54:00
10:54 PM,46.0,39.9,79,30.22,-9999.0,Calm,Calm,-,N/A,,Unknown,0,2013-05-27 02:54:00
11:54 PM,44.1,39.9,85,30.23,-9999.0,Calm,Calm,-,N/A,,Unknown,0,2013-05-27 03:54:00